sat.trackr.live / text

‹ back to catalog

STARLINK-37514

NORAD 68899 · 2026-097E

PAYLOAD ACTIVE UNKNOWN

§ Identity

Operator
Country
US
Launch date
2026-04-30
Launch site
AFWTR
Launch vehicle
Mass (kg)
RCS (m²)

Purposes: comms

External: N2YO · Heavens-Above · Gunter

§ Orbital elements

Epoch: 2026-09-20T00:18:04.819392Z

Period
93.91 min
Inclination
97.2889°
Eccentricity
0.0001206
Mean motion
15.33451559 rev/d
Perigee alt
464.7 km
Apogee alt
466.3 km
Semi-major
6,843.7 km
B*
2.4782e-4
RAAN
97.1078°
Arg perigee
66.3136°
Mean anomaly
293.8233°
Rev number
2,201

§ Raw data

STARLINK-375141 68899U 26097E   26263.01255578  .00007935  00000+0  24782-3 0  99952 68899  97.2889  97.1078 0001206  66.3136 293.8233 15.33451559 22017

JSON: /api/v1/satellites/68899 · /tle

For live sub-satellite position, see the globe view (requires WebGL).

§ Visibility from observer

Set your observer location to see the next 7 days of passes ≥ 10°. The values pass through the URL so the page stays shareable.

No JS? Fill the form by hand. The geolocation button needs JavaScript.